• In Belarus
  • List of Countries
  • For 7 days
  • Water Temperature
  • Satellite Maps
  • Weather Map
  • Weather Widgets
  • user-avatar
    Login

    Hourly Weather Kalat

    Today, 13 December, Thursday

    Time Temperature Precipitation Wind Pressure Humidity
    00:00 -23°C° 0 mm 3 mps 465 mmHg 59%
    01:00 -23°C° 0 mm 3 mps 465 mmHg 56%
    02:00 -23°C° 0 mm 3 mps 465 mmHg 53%
    03:00 -24°C° 0 mm 3 mps 465 mmHg 50%
    04:00 -24°C° 0 mm 3 mps 465 mmHg 47%
    05:00 -24°C° 0 mm 3 mps 465 mmHg 44%
    06:00 -24°C° 0 mm 3 mps 465 mmHg 42%
    07:00 -24°C° 0 mm 3 mps 466 mmHg 39%
    08:00 -23°C° 0 mm 3 mps 466 mmHg 37%
    09:00 -19°C° 0 mm 2 mps 468 mmHg 38%
    10:00 -16°C° 0 mm 2 mps 470 mmHg 40%
    11:00 -11°C° 0 mm 1 mps 471 mmHg 41%
    12:00 -10°C° 0 mm 1 mps 471 mmHg 42%
    13:00 -10°C° 0 mm 1 mps 471 mmHg 43%
    14:00 -9°C° 0 mm 1 mps 472 mmHg 44%
    15:00 -12°C° 0 mm 1 mps 470 mmHg 46%
    16:00 -14°C° 0 mm 1 mps 468 mmHg 47%
    17:00 -18°C° 0 mm 2 mps 467 mmHg 49%
    18:00 -19°C° 0 mm 2 mps 467 mmHg 47%
    19:00 -19°C° 0 mm 2 mps 467 mmHg 44%
    20:00 -22°C° 0 mm 3 mps 467 mmHg 41%
    21:00 -22°C° 0 mm 3 mps 467 mmHg 40%
    22:00 -22°C° 0 mm 3 mps 467 mmHg 38%
    23:00 -22°C° 0 mm 3 mps 468 mmHg 37%

    Tomorrow, 14 December, Friday

    Time Temperature Precipitation Wind Pressure Humidity
    00:00 -22°C° 0 mm 3 mps 468 mmHg 37%
    01:00 -22°C° 0 mm 3 mps 468 mmHg 37%
    02:00 -21°C° 0 mm 3 mps 468 mmHg 37%
    03:00 -21°C° 0 mm 3 mps 468 mmHg 36%
    04:00 -21°C° 0 mm 3 mps 467 mmHg 35%
    05:00 -21°C° 0 mm 3 mps 467 mmHg 34%
    06:00 -21°C° 0 mm 3 mps 468 mmHg 33%
    07:00 -21°C° 0 mm 3 mps 468 mmHg 33%
    08:00 -21°C° 0 mm 3 mps 469 mmHg 32%
    09:00 -16°C° 0 mm 2 mps 471 mmHg 36%
    10:00 -13°C° 0 mm 2 mps 472 mmHg 41%
    11:00 -8°C° 0 mm 1 mps 474 mmHg 45%
    12:00 -8°C° 0 mm 1 mps 474 mmHg 46%
    13:00 -7°C° 0 mm 1 mps 474 mmHg 47%
    14:00 -6°C° 0 mm 1 mps 474 mmHg 49%
    15:00 -9°C° 0 mm 1 mps 472 mmHg 49%
    16:00 -13°C° 0 mm 2 mps 471 mmHg 48%
    17:00 -16°C° 0 mm 2 mps 469 mmHg 48%
    18:00 -16°C° 0 mm 2 mps 469 mmHg 45%
    19:00 -17°C° 0 mm 2 mps 469 mmHg 41%
    20:00 -19°C° 0 mm 3 mps 469 mmHg 38%
    21:00 -19°C° 0 mm 3 mps 469 mmHg 35%
    22:00 -19°C° 0 mm 3 mps 469 mmHg 33%
    23:00 -19°C° 0 mm 3 mps 469 mmHg 31%

    Day after tomorrow, 15 December, Saturday

    Time Temperature Precipitation Wind Pressure Humidity
    00:00 -19°C° 0 mm 3 mps 469 mmHg 30%
    01:00 -19°C° 0 mm 3 mps 469 mmHg 30%
    02:00 -19°C° 0 mm 3 mps 469 mmHg 29%
    03:00 -19°C° 0 mm 3 mps 469 mmHg 28%
    04:00 -19°C° 0 mm 3 mps 469 mmHg 27%
    05:00 -19°C° 0 mm 3 mps 468 mmHg 27%
    06:00 -19°C° 0 mm 3 mps 469 mmHg 26%
    07:00 -18°C° 0 mm 3 mps 469 mmHg 26%
    08:00 -18°C° 0 mm 3 mps 470 mmHg 26%
    09:00 -14°C° 0 mm 2 mps 471 mmHg 32%
    10:00 -12°C° 0 mm 2 mps 473 mmHg 39%
    11:00 -7°C° 0 mm 1 mps 475 mmHg 45%
    12:00 -6°C° 0 mm 1 mps 475 mmHg 46%
    13:00 -6°C° 0 mm 1 mps 475 mmHg 48%
    14:00 -4°C° 0 mm 1 mps 475 mmHg 49%
    15:00 -7°C° 0 mm 1 mps 473 mmHg 48%
    16:00 -10°C° 0 mm 1 mps 471 mmHg 47%
    17:00 -14°C° 0 mm 2 mps 470 mmHg 46%
    18:00 -15°C° 0 mm 2 mps 470 mmHg 44%
    19:00 -15°C° 0 mm 2 mps 470 mmHg 41%
    20:00 -17°C° 0 mm 3 mps 471 mmHg 38%
    21:00 -17°C° 0 mm 3 mps 471 mmHg 36%
    22:00 -17°C° 0 mm 3 mps 471 mmHg 34%
    23:00 -17°C° 0 mm 3 mps 471 mmHg 31%

    16 December, Sunday

    Time Temperature Precipitation Wind Pressure Humidity
    00:00 -17°C° 0 mm 3 mps 471 mmHg 30%
    01:00 -17°C° 0 mm 3 mps 470 mmHg 29%
    02:00 -17°C° 0 mm 3 mps 470 mmHg 27%
    03:00 -17°C° 0 mm 3 mps 470 mmHg 27%
    04:00 -17°C° 0 mm 3 mps 470 mmHg 26%
    05:00 -17°C° 0 mm 3 mps 470 mmHg 26%
    06:00 -17°C° 0 mm 3 mps 470 mmHg 26%
    07:00 -17°C° 0 mm 3 mps 471 mmHg 27%
    08:00 -17°C° 0 mm 3 mps 471 mmHg 27%
    09:00 -13°C° 0 mm 2 mps 473 mmHg 34%
    10:00 -10°C° 0 mm 2 mps 475 mmHg 40%
    11:00 -6°C° 0 mm 1 mps 477 mmHg 46%
    12:00 -7°C° 0 mm 2 mps 476 mmHg 49%
    13:00 -6°C° 0 mm 2 mps 476 mmHg 51%
    14:00 -6°C° 0 mm 2 mps 476 mmHg 53%
    15:00 -8°C° 0 mm 2 mps 474 mmHg 53%
    16:00 -12°C° 0 mm 2 mps 473 mmHg 52%
    17:00 -14°C° 0 mm 2 mps 471 mmHg 51%
    18:00 -14°C° 0 mm 2 mps 471 mmHg 47%
    19:00 -16°C° 0 mm 3 mps 471 mmHg 44%
    20:00 -16°C° 0 mm 3 mps 471 mmHg 40%
    21:00 -17°C° 0 mm 3 mps 471 mmHg 38%
    22:00 -17°C° 0 mm 3 mps 470 mmHg 36%
    23:00 -17°C° 0 mm 3 mps 470 mmHg 33%

    17 December, Monday

    Time Temperature Precipitation Wind Pressure Humidity
    00:00 -17°C° 0 mm 3 mps 470 mmHg 33%
    01:00 -17°C° 0 mm 3 mps 470 mmHg 32%
    02:00 -17°C° 0 mm 3 mps 470 mmHg 31%
    03:00 -17°C° 0 mm 3 mps 470 mmHg 31%
    04:00 -18°C° 0 mm 3 mps 469 mmHg 31%
    05:00 -18°C° 0 mm 3 mps 469 mmHg 30%
    06:00 -17°C° 0 mm 3 mps 469 mmHg 30%
    07:00 -17°C° 0 mm 3 mps 470 mmHg 30%
    08:00 -17°C° 0 mm 3 mps 470 mmHg 30%
    09:00 -14°C° 0 mm 2 mps 472 mmHg 35%
    10:00 -10°C° 0 mm 2 mps 473 mmHg 40%
    11:00 -7°C° 0 mm 1 mps 475 mmHg 45%
    12:00 -6°C° 0 mm 1 mps 475 mmHg 46%
    13:00 -6°C° 0 mm 1 mps 475 mmHg 48%
    14:00 -4°C° 0 mm 1 mps 475 mmHg 50%
    15:00 -8°C° 0 mm 1 mps 473 mmHg 50%
    16:00 -10°C° 0 mm 1 mps 471 mmHg 49%
    17:00 -12°C° 0 mm 1 mps 469 mmHg 49%
    18:00 -15°C° 0 mm 2 mps 470 mmHg 47%
    19:00 -16°C° 0 mm 3 mps 470 mmHg 44%
    20:00 -16°C° 0 mm 3 mps 470 mmHg 42%
    21:00 -17°C° 0 mm 3 mps 470 mmHg 39%
    22:00 -17°C° 0 mm 3 mps 470 mmHg 37%
    23:00 -17°C° 0 mm 3 mps 470 mmHg 34%

    18 December, Tuesday

    Time Temperature Precipitation Wind Pressure Humidity
    00:00 -17°C° 0 mm 3 mps 470 mmHg 33%
    01:00 -17°C° 0 mm 3 mps 469 mmHg 31%
    02:00 -17°C° 0 mm 3 mps 469 mmHg 29%
    03:00 -17°C° 0 mm 3 mps 469 mmHg 29%
    04:00 -17°C° 0 mm 3 mps 469 mmHg 28%
    05:00 -17°C° 0 mm 3 mps 469 mmHg 27%
    06:00 -16°C° 0 mm 3 mps 469 mmHg 27%
    07:00 -16°C° 0 mm 3 mps 470 mmHg 27%
    08:00 -15°C° 0 mm 3 mps 470 mmHg 27%
    09:00 -13°C° 0 mm 3 mps 472 mmHg 35%
    10:00 -8°C° 0 mm 2 mps 473 mmHg 42%
    11:00 -6°C° 0 mm 2 mps 475 mmHg 50%
    12:00 -5°C° 0 mm 2 mps 475 mmHg 51%
    13:00 -4°C° 0 mm 2 mps 475 mmHg 53%
    14:00 -4°C° 0 mm 2 mps 475 mmHg 55%
    15:00 -6°C° 0 mm 2 mps 473 mmHg 52%
    16:00 -8°C° 0 mm 2 mps 471 mmHg 50%
    17:00 -12°C° 0 mm 3 mps 470 mmHg 47%
    18:00 -12°C° 0 mm 3 mps 470 mmHg 44%
    19:00 -13°C° 0 mm 3 mps 470 mmHg 42%
    20:00 -13°C° 0 mm 3 mps 470 mmHg 39%
    21:00 -14°C° 0 mm 4 mps 469 mmHg 38%
    22:00 -15°C° 0 mm 4 mps 469 mmHg 36%
    23:00 -15°C° 0 mm 4 mps 468 mmHg 35%
    Show more